Location: Unspecified
(35.0317°N, 0.0000°E)
Time: 17:15:14
(UTC+00:00)

Tiangong 2 - Visible Passes

Search period start: 20 May 2019 00:00
Search period end: 30 May 2019 00:00
Orbit: 379 x 387 km, 42.8° (Epoch: 20 May)

Date Brightness Start Highest point End Pass type
(mag) Time Alt. Az. Time Alt. Az. Time Alt. Az.
20 May 2.7 20:56:08 10° W 20:59:02 35° NNW 21:00:27 22° NNE visible
21 May 1.7 19:55:52 10° WSW 19:58:57 57° NNW 20:02:02 10° NE visible
21 May 3.6 21:33:36 10° WNW 21:36:03 21° N 21:36:04 21° N visible
22 May 3.3 20:33:09 10° WNW 20:35:50 25° NNW 20:38:31 10° NE visible
22 May 4.5 22:10:47 10° NW 22:11:20 13° NW 22:11:20 13° NW visible
23 May 2.7 19:32:44 10° W 19:35:40 35° NNW 19:38:35 10° NE visible
23 May 3.6 21:10:34 10° NW 21:12:55 19° N 21:14:10 15° NNE visible
24 May 3.6 20:10:11 10° WNW 20:12:39 21° N 20:15:07 10° NE visible
24 May 3.8 21:47:27 10° NW 21:49:04 19° NNW 21:49:04 19° NNW visible
25 May 3.5 20:47:22 10° NW 20:49:45 19° N 20:51:41 12° NE visible
26 May 3.6 19:47:07 10° NW 19:49:28 19° N 19:51:49 10° NE visible
26 May 3.0 21:24:00 10° NW 21:26:25 27° N 21:26:25 27° N visible
27 May 3.2 20:24:00 10° NW 20:26:32 22° N 20:28:57 11° ENE visible
27 May 4.1 22:00:27 10° WNW 22:01:07 15° WNW 22:01:07 15° WNW visible
28 May 1.9 21:00:28 10° NW 21:03:28 41° NNE 21:03:38 40° NNE visible
29 May 2.7 20:00:30 10° NW 20:03:16 28° NNE 20:06:01 10° ENE visible
29 May 3.4 21:37:01 10° WNW 21:38:20 22° WNW 21:38:20 22° WNW visible
